Regional Weather Roundup
Issued by NWS New Orleans/Baton Rouge, LA

Home | Current Version | Previous Version | Graphics & Text | Print | Product List | Glossary On
Versions: 1 2 3 4 5 6 7 8 9 10 11 12 13 14 15 16 17 18 19 20 21 22 23 24 25 26 27 28 29 30 31 32 33 34 35 36 37 38 39 40 41 42 43 44 45 46 47 48 49 50
797
ASUS44 KLIX 210001
RWRLIX
NEW ORLEANS REGIONAL WEATHER ROUNDUP
NATIONAL WEATHER SERVICE NEW ORLEANS LA
700 PM CDT SAT SEP 20 2014

NOTE: "FAIR" INDICATES FEW OR NO CLOUDS BELOW 12,000 FEET WITH NO
      SIGNIFICANT WEATHER AND/OR OBSTRUCTIONS TO VISIBILITY.
      SKY/WX - SKY CONDITION AND SIGNIFICANT WEATHER.
      TMP - AIR TEMPERATURE.     DP    - DEWPOINT TEMPERATURE.
      RH  - RELATIVE HUMIDITY.   PRES  - PRESSURE.
      HI  - HEAT INDEX.          WCI   - WIND CHILL INDEX.

*  THESE STATIONS ARE NOT NWS OR FAA STATIONS AND ARE NOT UNDER
   NWS QUALITY CONTROL.

LAZ038-040-048-061>063-065>067-069-210100-
SOUTHEAST LOUISIANA

CITY           SKY/WX    TMP DP  RH WIND       PRES   REMARKS
N.O. AUDUBON     N/A     84  70  62 MISG        N/A
6HR MIN TEMP:  84; 6HR MAX TEMP:  89;

N.O. INTL ARPT PTCLDY    83  67  58 E8        29.94R
6HR MIN TEMP:  83; 6HR MAX TEMP:  89;

N.O. LAKEFRONT CLEAR     82  70  66 E13       29.94R
6HR MIN TEMP:  82; 6HR MAX TEMP:  86;

N.O. DOWNTOWN*   N/A     82  66  57 SE6       29.94R
6HR MIN TEMP:  82; 6HR MAX TEMP:  88;

SLIDELL        CLEAR     81  70  69 E3        29.93S
6HR MIN TEMP:  81; 6HR MAX TEMP:  89;

BATON ROUGE    CLEAR     81  70  69 NE3       29.94R
6HR MIN TEMP:  81; 6HR MAX TEMP:  89;

BOOTHVILLE     PTCLDY    81  72  74 E15G21    29.94R
6HR MIN TEMP:  81; 6HR MAX TEMP:  85;

BELLE CHASSE   PTCLDY    81  69  67 E5        29.93R
6HR MIN TEMP:  81; 6HR MAX TEMP:  87;

BOGALUSA*        N/A     83  68  61 CALM      29.96R
6HR MIN TEMP:  83; 6HR MAX TEMP:  90;

GALLIANO*      NOT AVBL
NEW ROADS*       N/A     83  69  62 CALM      29.94S
6HR MIN TEMP:  83; 6HR MAX TEMP:  89;

GONZALES*        N/A     79  77  94 CALM      29.93R
6HR MIN TEMP:  79; 6HR MAX TEMP:  88;

HAMMOND*       NOT AVBL
HOUMA*         PTCLDY    81  54  39 E5        29.93S
PORT FOURCHON* PTCLDY    82  72  69 E14G22    29.96R

$$

MSZ070-080>082-210100-
SOUTHERN MISSISSIPPI

CITY           SKY/WX    TMP DP  RH WIND       PRES   REMARKS
MCCOMB         CLEAR     83  68  60 CALM      29.96S
6HR MIN TEMP:  83; 6HR MAX TEMP:  89;

GULFPORT       CLEAR     82  67  60 E7        29.93S
6HR MIN TEMP:  82; 6HR MAX TEMP:  89;

BILOXI         CLEAR     81  68  63 E10       29.95R
6HR MIN TEMP:  81; 6HR MAX TEMP:  90;

PASCAGOULA     CLEAR     78  68  71 E3        29.95S
6HR MIN TEMP:  78; 6HR MAX TEMP:  87;

STENNIS ARPT*  PTCLDY    81  68  65 SE5       29.94S

$$

COASTAL OBSERVATIONS
LAKE AND NEARSHORE STATIONS

STATION/POSITION TIME  TEMP    WIND        PRES    WAVE
                       AIR SEA DIR/SP/G            HT/PER
                 (UTC) (F)     (DEG/KT/KT) (MB)    (FT/S)
PASCAGOULA       2300   82      60/ 11/ 13 1013.7
WAVELAND YACHT   2300   82     130/ 10/ 12 1013.2
GRAND ISLE       2300   81 83   80/ 13/ 18 1014.0
SOUTHWEST PASS   2300   82 90   70/ 21/ 24 1013.6
NEW CANAL        2300   83 81  140/  2/  8 1014.0
SHELL BEACH      2300   81 80   90/ 12/ 14 1013.5

OFFSHORE STATIONS

STATION/POSITION TIME  TEMP    WIND        PRES    WAVE
                       AIR SEA DIR/SP/G            HT/PER
                 (UTC) (F)     (DEG/KT/KT) (MB)    (FT/S)

$$




USA.gov is the U.S. government's official web portal to all federal, state and local government web resources and services.